Weather History for Tampa, FL

Change the Weather History Date:

Thursday, August 29, 2013

  Actual Average Record
Temperature  
Mean Temperature 85 °F 83 °F  
Max Temperature 93 °F 90 °F 97 °F (1951)
Min Temperature 76 °F 76 °F 69 °F (1969)
Degree Days  
Heating Degree Days 0 0  
Month to date heating degree days 0 0  
Since 1 June heating degree days 0 0  
Since 1 July heating degree days 0 0  
Cooling Degree Days 20 18  
Month to date cooling degree days 556 522  
Year to date cooling degree days 2603 2473  
Since 1 June cooling degree days 1628 1596  
Growing Degree Days 34 (Base 50)    
Moisture  
Dew Point 71 °F    
Average Humidity 64    
Maximum Humidity 79    
Minimum Humidity 49    
Precipitation  
Precipitation 0.00 in 0.25 in 2.15 in (1992)
Month to date precipitation 11.45 7.28  
Year to date precipitation 42.06 33.23  
Sea Level Pressure  
Sea Level Pressure 30.01 in    
Wind  
Wind Speed 3 mph (NW)    
Max Wind Speed 15 mph    
Max Gust Speed 23 mph    
Visibility 10 miles    
Events      
T = Trace of Precipitation, MM = Missing Value Source: NWS Daily Summary

Daily Weather History Graph

Daily Weather History Graph

Search for Another Location

Airport:

Trip Planner

Search our weather history database for the weather conditions in past years. The results will help you decide how hot, cold, wet, or windy it might be!

Date:

Astronomy

Aug. 29, 2013 Rise Set
Actual Time 7:07 AM EDT 7:54 PM EDT
Civil Twilight 6:43 AM EDT 8:17 PM EDT
Nautical Twilight 6:15 AM EDT 8:46 PM EDT
Astronomical Twilight 5:46 AM EDT 9:14 PM EDT
Moon 1:12 AM EDT (8/29) 3:06 PM EDT (8/29)
Length of Visible Light 13h 34m
Length of Day
12h 46m
Last Quarter, 38% of the Moon is Illuminated
Aug 29
Last Quarter
Sep 5
New
Sep 12
First Quarter
Sep 19
Full
Sep 26
Last Quarter

Hourly Weather History & Observations

Time (EDT) Temp. Heat Index Dew Point Humidity Pressure Visibility Wind Dir Wind Speed Gust Speed Precip Events Conditions
12:53 AM 80.1 °F 83.2 °F 70.0 °F 71% 30.05 in 10.0 mi Calm Calm - N/A   Scattered Clouds
1:53 AM 79.0 °F - 71.1 °F 77% 30.04 in 10.0 mi Calm Calm - N/A   Partly Cloudy
2:53 AM 79.0 °F - 72.0 °F 79% 30.04 in 10.0 mi Calm Calm - N/A   Scattered Clouds
3:53 AM 78.1 °F - 72.0 °F 81% 30.03 in 10.0 mi Calm Calm - N/A   Mostly Cloudy
4:53 AM 78.1 °F - 71.1 °F 79% 30.02 in 10.0 mi Calm Calm - N/A   Mostly Cloudy
5:53 AM 78.1 °F - 71.1 °F 79% 30.01 in 10.0 mi Calm Calm - N/A   Mostly Cloudy
6:53 AM 77.0 °F - 70.0 °F 79% 30.02 in 10.0 mi Calm Calm - N/A   Mostly Cloudy
7:53 AM 77.0 °F - 70.0 °F 79% 30.03 in 10.0 mi East 3.5 mph - N/A   Scattered Clouds
8:53 AM 81.0 °F 84.4 °F 70.0 °F 69% 30.04 in 10.0 mi Calm Calm - N/A   Partly Cloudy
9:53 AM 82.0 °F 86.3 °F 71.1 °F 69% 30.05 in 10.0 mi Calm Calm - N/A   Partly Cloudy
10:53 AM 84.0 °F 89.0 °F 71.1 °F 65% 30.05 in 10.0 mi SW 4.6 mph - N/A   Partly Cloudy
11:53 AM 86.0 °F 93.0 °F 73.0 °F 65% 30.04 in 10.0 mi SW 6.9 mph - N/A   Partly Cloudy
12:53 PM 89.1 °F 93.7 °F 69.1 °F 52% 30.03 in 10.0 mi Variable 4.6 mph - N/A   Scattered Clouds
1:53 PM 89.1 °F 92.9 °F 68.0 °F 50% 30.02 in 10.0 mi North 5.8 mph - N/A   Scattered Clouds
2:53 PM 90.0 °F 94.5 °F 69.1 °F 50% 30.00 in 10.0 mi Variable 3.5 mph - N/A   Mostly Cloudy
3:53 PM 91.0 °F 95.6 °F 69.1 °F 48% 29.97 in 10.0 mi Variable 6.9 mph - N/A   Scattered Clouds
4:53 PM 90.0 °F 96.9 °F 72.0 °F 55% 29.96 in 10.0 mi NW 10.4 mph - N/A   Scattered Clouds
5:53 PM 89.1 °F 96.0 °F 72.0 °F 57% 29.96 in 9.0 mi NNW 9.2 mph - N/A   Mostly Cloudy
6:53 PM 84.9 °F 90.7 °F 72.0 °F 65% 29.96 in 10.0 mi Variable 4.6 mph - N/A   Mostly Cloudy
7:53 PM 84.9 °F 90.7 °F 72.0 °F 65% 29.97 in 10.0 mi NNW 9.2 mph - N/A   Scattered Clouds
8:53 PM 82.9 °F 88.8 °F 73.0 °F 72% 29.98 in 10.0 mi NW 4.6 mph - N/A   Partly Cloudy
9:53 PM 82.0 °F 87.4 °F 73.0 °F 74% 29.99 in 10.0 mi NW 3.5 mph - N/A   Partly Cloudy
10:53 PM 82.0 °F 87.4 °F 73.0 °F 74% 29.99 in 10.0 mi Calm Calm - N/A   Scattered Clouds
11:53 PM 82.0 °F 87.4 °F 73.0 °F 74% 30.00 in 10.0 mi Calm Calm - N/A   Scattered Clouds